Date,TemperatureHighF,TemperatureAvgF,TemperatureLowF,DewpointHighF,DewpointAvgF,DewpointLowF,HumidityHigh,HumidityAvg,HumidityLow,PressureMaxIn,PressureMinIn,WindSpeedMaxMPH,WindSpeedAvgMPH,GustSpeedMaxMPH,PrecipitationSumIn
2013-4-1,64,46,35,44,34,15,87,64,42,29.36,29.09,7,2,9,0.03
2013-4-2,46,36,29,19,13,9,48,39,29,29.53,29.36,7,3,10,0.00
2013-4-3,53,37,30,21,11,0,42,34,17,29.74,29.50,7,4,10,0.00
2013-4-4,62,40,24,31,17,6,52,39,27,29.83,29.56,5,1,6,0.00
2013-4-5,70,48,37,33,19,-10,55,36,5,29.56,29.21,6,2,7,0.00
2013-4-6,63,42,32,14,5,-11,41,26,5,29.80,29.47,5,1,6,0.00
2013-4-7,57,41,30,36,25,11,72,53,41,29.77,29.50,7,1,8,0.20
2013-4-8,83,55,37,49,38,30,80,56,31,29.56,29.44,4,1,6,0.00
2013-4-9,83,63,47,52,41,33,83,49,25,29.53,29.42,9,2,11,0.00
2013-4-10,80,59,49,56,45,34,85,61,44,29.50,29.33,7,1,7,0.21
2013-4-11,63,54,46,53,46,36,91,76,62,29.56,29.30,2,0,3,0.00
2013-4-12,46,41,38,37,33,25,89,74,48,29.56,29.24,4,1,6,0.46
2013-4-13,57,46,37,40,35,31,89,69,47,29.44,29.24,4,1,6,0.00
2013-4-14,60,48,39,36,30,21,76,52,35,29.71,29.42,6,2,8,0.00
2013-4-15,68,48,34,40,29,21,63,48,36,29.86,29.71,4,1,5,0.00
2013-4-16,65,51,37,50,41,26,84,68,52,29.86,29.62,5,1,12,0.00
2013-4-17,81,59,47,51,41,29,89,55,30,29.80,29.59,5,1,6,0.00
2013-4-18,63,51,39,43,36,28,74,57,44,29.83,29.62,4,1,7,0.00
2013-4-19,72,60,51,62,55,43,94,85,69,29.62,29.18,6,1,11,0.00
2013-4-20,63,53,44,59,39,22,93,63,35,29.74,29.18,6,2,8,0.17
2013-4-21,64,45,33,34,22,16,49,40,28,30.09,29.77,5,1,6,0.25
2013-4-22,64,45,32,36,27,20,69,50,35,30.15,29.98,5,1,6,0.00
2013-4-23,49,43,37,37,32,24,76,65,59,29.98,29.59,2,0,5,0.00
2013-4-24,78,54,41,52,42,34,83,65,40,29.59,29.36,5,1,6,0.00
2013-4-25,76,56,42,48,34,23,85,48,22,29.74,29.39,6,2,8,0.00
2013-4-26,76,53,35,43,30,23,64,43,25,29.92,29.74,4,1,5,0.00
2013-4-27,80,56,40,38,25,-13,49,34,3,29.92,29.80,4,1,5,0.00
2013-4-28,73,54,38,46,34,25,72,47,33,29.83,29.71,4,1,6,0.00
2013-4-29,59,53,48,44,37,28,67,55,42,29.77,29.71,3,0,4,0.00
2013-4-30,74,57,44,44,37,24,75,49,27,29.86,29.71,3,0,4,0.00